sat.trackr.live / text

‹ back to catalog

STARLINK-33619

NORAD 63324 · 2025-057T

PAYLOAD ACTIVE UNKNOWN

§ Identity

Operator
Country
US
Launch date
2025-03-18
Launch site
AFETR
Launch vehicle
Mass (kg)
RCS (m²)

Purposes: comms

External: N2YO · Heavens-Above · Gunter

§ Orbital elements

Epoch: 2026-05-25T04:46:22.520928Z

Period
94.27 min
Inclination
43.0014°
Eccentricity
0.0002415
Mean motion
15.27590658 rev/d
Perigee alt
481.4 km
Apogee alt
484.7 km
Semi-major
6,861.2 km
B*
5.6418e-4
RAAN
318.3252°
Arg perigee
277.9006°
Mean anomaly
82.1572°
Rev number
6,748

§ Raw data

STARLINK-336191 63324U 25057T   26145.19887177  .00015300  00000+0  56418-3 0  99982 63324  43.0014 318.3252 0002415 277.9006  82.1572 15.27590658 67487

JSON: /api/v1/satellites/63324 · /tle

For live sub-satellite position, see the globe view (requires WebGL).

§ Visibility from observer

Set your observer location to see the next 7 days of passes ≥ 10°. The values pass through the URL so the page stays shareable.

No JS? Fill the form by hand. The geolocation button needs JavaScript.